JY1SAT (JO-97)

Last updated on Thu Nov 21 2024 00:03:02 GMT+0000 (Coordinated Universal Time)

1 43803U 18099AX 24325.10571766 .00018758 00000+0 10552-2 0 9997 2 43803 97.4989 20.6928 0009645 122.7696 237.4466 15.13270549326224
UTC large
Height (km)
Speed (km/s)
/
Latitude / Longitude
Inclination (degrees)
Orbital Period (minutes)
Azimuth
Elevation
Range (km)
Doppler Factor

Next 0 passes for location: London (51.5072 / 0.1276)

Sorry there are no passes over London.